Voltar ao catálogo

DELTA 1 DEB

AtivoSSO
NORAD 18647·DEBRIS·🇺🇸 United States

Lançado Nov 6, 1973 de Vandenberg Space Force Base

Loading…

Próximas Passagens (próximas 24 horas)

TLE

AtualizadoSource: Space-Track

Época: Sep 12, 2026, 08:35 UTC

1 18647U 73086GY  26255.35808609 -.00000010  00000-0  22831-3 0  9990
2 18647 101.7167 213.6683 0074497  24.4968 129.6192 12.47043953352462

Acompanhe DELTA 1 DEB em tempo real com AllMySat

Download on the App Store